Weather History for Amman Airport, Jordan

Change the Weather History Date:

Saturday, July 13, 2013

  Actual Average Record
Temperature  
Mean Temperature 80 °F -  
Max Temperature 95 °F 88 °F - ()
Min Temperature 66 °F 68 °F - ()
Cooling Degree Days 16    
Growing Degree Days 30 (Base 50)    
Moisture  
Dew Point 54 °F    
Average Humidity 40    
Maximum Humidity 68    
Minimum Humidity 17    
Precipitation  
Precipitation 0.00 in 0.00 in - ()
Sea Level Pressure  
Sea Level Pressure 29.78 in    
Wind  
Wind Speed 5 mph ()    
Max Wind Speed 12 mph    
Max Gust Speed -    
Visibility 2.9 miles    
Events      
T = Trace of Precipitation, MM = Missing Value Source: Averaged Metar Reports

Daily Weather History Graph

Daily Weather History Graph

Search for Another Location

Airport:

Trip Planner

Search our weather history database for the weather conditions in past years. The results will help you decide how hot, cold, wet, or windy it might be!

Date:

Astronomy

Jul. 13, 2013 Rise Set
Actual Time 5:39 AM EEST 7:43 PM EEST
Civil Twilight 5:11 AM EEST 8:11 PM EEST
Nautical Twilight 4:38 AM EEST 8:45 PM EEST
Astronomical Twilight 4:01 AM EEST 9:21 PM EEST
Moon 10:14 AM EEST (7/13) 10:36 PM EEST (7/13)
Length of Visible Light 14h 59m
Length of Day
14h 04m
Waxing Crescent, 23% of the Moon is Illuminated
Jul 13
Waxing Crescent
Jul 16
First Quarter
Jul 22
Full
Jul 29
Last Quarter
Aug 7
New

Hourly Weather History & Observations

Time (EEST) Temp. Heat Index Dew Point Humidity Pressure Visibility Wind Dir Wind Speed Gust Speed Precip Events Conditions
12:00 AM 75 °F - 52 °F 34% 29.70 in 6 mi West 6.9 mph - -  
12:00 AM 75.2 °F - 51.8 °F 44% 29.86 in - WSW 6.9 mph - N/A   Clear
1:00 AM 73.4 °F - 48.2 °F 41% 29.86 in - WSW 6.9 mph - N/A   Clear
2:00 AM 73.4 °F - 48.2 °F 41% 29.86 in - WSW 6.9 mph - N/A   Clear
3:00 AM 73 °F - 48 °F 30% 29.70 in 6 mi SW 6.9 mph - -  
3:00 AM 73.4 °F - 48.2 °F 41% 29.86 in - SW 6.9 mph - N/A   Clear
4:00 AM 71.6 °F - 46.4 °F 41% 29.86 in - SW 6.9 mph - N/A   Clear
5:00 AM 69.8 °F - 48.2 °F 46% 29.83 in 4.3 mi Calm Calm - N/A   Unknown
6:00 AM 67 °F - 55 °F 56% 29.70 in 2 mi Calm Calm - -   Haze
6:00 AM 66.2 °F - 55.4 °F 68% 29.83 in 1.9 mi Calm Calm - N/A   Haze
7:00 AM 68.0 °F - 57.2 °F 68% 29.83 in 1.9 mi Calm Calm - N/A   Haze
8:00 AM 71.6 °F - 59.0 °F 64% 29.83 in 1.9 mi Calm Calm - N/A   Smoke
9:00 AM 76 °F - 57 °F 41% 29.70 in 2 mi Calm Calm - -   Smoke
9:00 AM 75.2 °F - 57.2 °F 53% 29.83 in 2.2 mi Calm Calm - N/A   Smoke
10:00 AM 80.6 °F 80.3 °F 53.6 °F 39% 29.83 in 2.5 mi North 4.6 mph - N/A   Smoke
11:00 AM 84.2 °F - 50.0 °F 30% 29.83 in 3.1 mi NNE 4.6 mph - N/A   Haze
12:00 PM 87 °F - 54 °F 23% 29.67 in 3 mi Calm Calm - -   Haze
12:00 PM 86.0 °F 84.2 °F 53.6 °F 33% 29.83 in 3.1 mi Calm Calm - N/A   Haze
1:00 PM 91.4 °F - 51.8 °F 26% 29.83 in 3.1 mi NE 4.6 mph - N/A   Haze
2:00 PM 95.0 °F - 51.8 °F 23% 29.83 in 3.1 mi East 5.8 mph - N/A   Haze
3:00 PM 95 °F - 55 °F 17% 29.62 in 3 mi SW 6.9 mph - -   Haze
3:00 PM 95.0 °F 93.0 °F 55.4 °F 26% 29.80 in 3.1 mi SW 6.9 mph - N/A   Haze
4:00 PM 91.4 °F - 42.8 °F 18% 29.77 in 2.8 mi WSW 11.5 mph - N/A   Haze
5:00 PM 91.4 °F - 51.8 °F 26% 29.77 in 2.5 mi West 11.5 mph - N/A   Haze
6:00 PM 90 °F - 52 °F 18% 29.64 in 2 mi WSW 11.5 mph - -   Haze
6:00 PM 89.6 °F - 51.8 °F 27% 29.77 in 2.5 mi WSW 11.5 mph - N/A   Haze
7:00 PM 86.0 °F 84.5 °F 55.4 °F 35% 29.80 in 2.5 mi NW 10.4 mph - N/A   Haze
8:00 PM 80.6 °F 81.5 °F 60.8 °F 51% 29.80 in 2.5 mi NW 8.1 mph - N/A   Haze
9:00 PM 81 °F - 61 °F 40% 29.65 in 3 mi NW 11.2 mph - -   Haze
9:00 PM 80.6 °F 81.5 °F 60.8 °F 51% 29.80 in 3.1 mi NW 5.8 mph - N/A   Haze
10:00 PM 77.0 °F - 62.6 °F 61% 29.80 in 3.1 mi Calm Calm - N/A   Haze
11:00 PM 75.2 °F - 60.8 °F 61% 29.80 in 3.1 mi Calm Calm - N/A   Haze